Theta_e
347 347 349 347 350 351 351 347 347 346 345 339 340 339 337 334 334 332 333 333 331 330 330 329 330 328 327 326 327 327 328 328 328 327 326 327 327 327 326 328 328 316 318
348 349 349 352 348 350 347 344 342 342 340 338 338 334 333 334 333 332 330 332 330 329 329 328 327 325 326 327 327 327 330 329 325 327 328 327 328 328 327 327 327 319 319
349 348 348 346 345 345 343 342 339 338 336 335 336 333 335 333 331 331 330 331 332 331 330 329 326 326 326 326 327 327 327 328 327 327 327 327 327 330 328 326 326 323 325
344 345 345 344 342 341 340 338 338 336 334 335 335 334 332 331 331 331 332 332 330 329 329 329 326 326 325 327 327 328 326 327 328 327 326 327 327 327 328 327 328 327 329
343 342 341 340 340 339 338 337 335 334 334 334 333 332 331 331 331 332 331 331 329 329 327 326 325 325 326 327 328 326 325 327 328 326 327 326 325 327 327 326 326 327 328
340 340 340 340 338 337 335 334 333 334 334 333 332 331 331 332 331 332 330 330 330 329 327 326 327 326 325 326 326 327 327 327 326 325 327 328 327 327 326 326 327 327 325
340 339 338 336 335 334 335 333 332 334 333 332 330 331 333 332 331 327 327 327 330 329 328 328 326 325 324 326 326 326 328 328 327 324 326 327 326 327 326 326 326 327 326
337 335 334 334 334 333 333 332 333 332 331 332 332 333 332 331 326 324 325 326 330 330 328 327 326 327 326 326 325 327 328 326 325 324 326 328 328 328 327 327 326 326 326
334 333 334 334 333 333 332 332 332 332 332 332 333 332 331 328 327 326 329 330 330 329 327 326 325 327 326 326 327 327 326 327 326 326 326 327 327 327 327 327 325 324 324
333 333 334 336 334 332 332 332 333 332 330 331 332 330 330 329 330 329 330 330 329 328 327 326 326 327 327 327 328 327 327 326 326 326 326 327 327 326 327 327 326 326 325
332 332 335 335 332 331 332 332 332 331 331 332 331 330 332 329 329 329 329 330 329 328 327 326 325 326 326 326 328 326 325 326 325 325 325 326 326 324 324 325 326 325 325
332 335 335 332 333 333 333 332 331 332 330 331 330 331 330 329 328 328 328 329 329 327 328 326 325 326 326 327 327 327 326 325 325 324 325 324 325 323 323 324 324 323 323
334 335 333 332 333 333 332 332 333 331 330 331 328 331 330 328 328 327 326 325 326 328 327 327 326 326 325 327 326 325 325 324 324 322 322 322 323 324 323 323 323 323 323
334 333 332 333 333 332 332 332 331 330 329 331 331 329 329 329 327 326 325 325 326 327 327 327 326 325 325 325 324 324 323 323 323 322 322 322 322 322 322 323 322 322 322
332 331 333 332 332 332 333 333 332 330 330 330 331 330 329 327 327 327 326 325 326 327 327 326 326 325 326 324 325 325 324 323 324 324 324 323 322 322 322 322 324 324 324
332 332 334 334 333 333 332 333 331 331 330 330 330 330 330 329 327 327 325 324 325 325 325 326 325 325 325 324 324 323 323 323 323 323 324 322 322 323 323 322 323 322 324
333 333 332 333 333 331 332 330 329 329 330 331 329 329 328 329 326 325 324 324 325 323 323 324 325 325 325 323 322 322 322 324 324 324 323 323 323 322 322 322 322 322 323
333 331 331 333 333 333 331 332 330 327 328 329 329 329 329 327 325 324 324 325 324 324 323 323 324 324 324 324 324 323 323 323 324 324 324 323 323 322 322 322 322 324 323
333 330 331 333 332 331 331 331 331 330 330 327 327 328 327 325 324 323 324 325 324 324 324 323 323 324 324 323 324 324 324 324 325 324 324 324 324 323 323 323 323 323 325
332 329 330 329 328 331 332 332 333 332 330 327 326 327 326 324 324 324 325 325 324 326 327 325 324 323 324 324 324 324 324 324 325 325 325 324 324 323 323 323 324 325 326
330 328 330 329 328 329 332 331 333 333 331 329 328 326 326 325 324 325 325 325 326 325 325 327 326 325 324 324 324 324 325 325 326 327 326 326 325 325 324 324 324 326 326
329 328 331 330 328 330 331 331 331 333 332 331 329 326 326 326 325 325 326 326 327 327 326 326 328 327 326 327 326 326 326 326 326 326 326 327 327 327 326 326 327 328 326
328 327 330 330 329 328 329 331 330 332 332 329 326 326 328 328 328 327 328 328 328 329 329 329 328 328 327 327 327 327 327 326 326 326 326 326 327 327 327 327 325 327 327
329 326 328 330 328 328 327 327 331 332 331 323 328 329 329 329 329 329 329 329 329 330 329 329 329 329 329 328 329 328 328 328 328 328 328 328 328 329 330 329 330 328 326
331 327 327 329 330 329 330 327 328 331 329 325 329 330 330 331 330 331 330 330 330 329 329 329 329 329 329 328 329 327 328 328 328 329 329 329 329 328 327 326 326 327 327
331 330 329 330 330 330 330 328 328 329 330 328 327 328 331 330 331 330 330 329 329 329 329 329 329 328 329 329 328 329 327 326 327 327 327 327 327 328 328 328 328 328 328
Wind_Speed
23 22 25 26 26 27 26 22 23 25 22 18 20 20 19 15 12 9 12 12 9 13 13 13 9 9 8 11 10 9 8 13 14 14 14 14 14 14 17 14 16 18 20
23 24 26 28 28 28 28 27 26 24 20 19 17 12 11 10 8 11 13 10 11 10 11 12 12 9 10 8 9 11 11 10 16 18 18 18 15 17 18 17 17 18 20
26 28 27 26 25 27 26 24 21 21 18 16 13 9 11 12 11 11 10 10 9 10 10 11 11 10 10 11 11 12 12 14 13 17 18 18 18 18 17 17 18 20 22
27 27 26 26 25 26 24 21 20 18 17 16 15 12 12 13 12 9 11 12 13 12 12 11 10 10 10 9 14 13 13 14 18 15 18 19 20 18 18 21 24 22 25
26 26 25 25 24 23 21 20 18 17 16 14 14 14 14 13 11 10 11 12 11 11 11 10 10 11 14 10 13 11 14 19 18 17 21 22 21 21 23 25 26 27 27
26 26 24 23 22 21 19 19 18 16 15 16 15 14 13 10 10 11 9 7 8 7 10 9 8 8 13 10 12 10 15 20 17 21 22 25 25 24 25 26 30 29 30
26 25 23 21 19 20 21 20 19 16 17 14 14 14 12 11 10 12 13 10 11 6 7 7 8 9 11 13 12 10 15 12 9 19 22 25 26 24 24 27 27 30 33
22 21 20 21 19 18 19 20 17 16 16 16 15 12 11 10 9 8 9 8 7 8 5 7 8 7 13 13 15 16 13 6 8 15 19 21 21 23 21 25 27 27 30
21 21 22 17 18 17 17 19 18 19 16 15 12 10 8 7 8 9 8 5 5 6 6 8 9 8 16 17 18 18 15 13 11 6 12 17 16 22 25 28 28 29 30
21 19 20 21 20 15 18 20 18 14 15 13 11 10 8 9 10 9 7 5 6 6 7 8 7 9 18 18 19 19 19 17 15 12 16 14 16 19 21 23 26 31 35
19 18 24 20 16 15 19 18 14 15 15 14 10 8 7 9 10 10 8 7 5 6 8 11 9 12 22 20 17 18 15 19 15 18 19 17 16 20 23 24 23 24 29
20 23 18 16 14 15 16 13 15 15 16 15 11 13 9 8 10 9 8 7 4 6 9 14 11 13 19 19 18 17 17 17 18 18 19 19 17 17 22 20 21 19 24
21 20 14 17 16 16 12 14 15 14 17 13 11 12 10 8 10 8 6 5 6 8 9 13 16 16 19 15 11 13 18 20 20 21 21 19 20 19 21 13 17 15 17
23 17 19 16 14 13 10 9 10 14 16 15 15 8 11 8 8 8 5 5 7 9 13 15 17 19 19 16 16 17 18 17 17 20 21 22 21 21 20 19 21 18 17
24 17 18 16 15 15 13 11 10 12 14 14 14 13 8 11 6 5 4 6 7 10 16 17 20 20 22 20 20 19 16 14 17 21 21 23 24 22 26 29 22 20 12
24 22 20 19 16 16 15 12 7 8 11 13 15 13 11 5 7 9 4 5 8 11 14 17 19 22 24 22 23 18 15 17 19 20 21 18 20 25 28 32 27 15 12
23 22 19 21 17 16 12 7 10 11 10 11 14 11 8 7 5 6 9 10 13 12 12 14 17 20 21 22 22 18 18 16 18 19 19 19 19 24 28 28 26 19 14
23 19 18 21 18 20 15 11 7 9 12 14 12 11 8 7 7 8 12 15 16 14 8 12 14 17 20 23 23 19 17 18 17 17 17 16 17 22 22 21 23 18 16
20 17 17 16 24 20 15 11 10 13 13 12 15 13 11 12 10 11 12 16 16 14 11 8 10 15 17 16 19 21 18 18 18 17 15 21 18 22 21 20 18 17 15
20 17 10 21 17 18 16 15 14 14 13 9 14 15 17 14 15 14 16 15 14 14 11 9 11 11 13 14 14 18 16 14 16 17 17 18 23 21 20 21 20 20 23
18 16 12 18 19 15 17 14 16 14 15 13 12 12 15 14 16 15 11 11 8 13 14 11 8 9 12 14 12 17 15 18 15 15 15 15 17 18 18 18 16 16 20
20 16 14 17 19 19 16 16 17 20 19 17 12 14 16 14 11 12 13 12 12 9 9 12 10 8 12 12 9 12 12 14 13 13 14 14 15 14 12 18 22 21 22
22 20 15 10 19 20 17 16 23 23 24 15 16 20 21 19 12 8 8 8 9 9 9 10 12 11 9 9 7 9 9 10 11 11 10 13 17 16 16 14 17 18 21
21 19 14 8 23 17 19 17 26 30 21 21 24 22 18 18 18 14 8 8 9 9 17 14 13 16 14 14 16 16 15 15 16 16 11 12 16 16 17 18 18 24 28
18 20 17 17 15 21 20 24 20 31 23 23 22 14 22 20 18 18 16 15 15 14 12 11 7 11 18 13 12 9 8 10 13 16 16 19 19 18 18 20 22 25 27
21 20 20 25 20 24 24 27 30 31 33 31 29 22 23 26 21 23 19 17 17 17 14 12 12 10 11 12 13 10 11 12 14 16 18 18 16 17 17 17 16 16 17
Wind_Direction
190 188 185 181 179 184 177 175 175 177 182 181 181 188 205 216 212 197 189 224 254 219 224 222 225 232 234 231 232 216 205 198 187 156 170 156 163 168 172 178 173 171 169
180 175 170 174 178 174 173 176 178 173 173 172 192 209 203 193 197 209 202 221 241 242 227 217 229 238 232 231 218 194 178 183 175 170 169 169 169 170 175 175 169 169 166
170 169 170 174 174 168 173 179 182 176 166 176 193 189 180 191 203 201 189 216 226 230 235 231 227 227 229 224 207 201 185 188 182 188 177 176 172 170 168 165 163 164 160
173 168 165 163 168 166 167 165 167 170 172 181 180 178 187 195 202 200 207 226 244 233 241 239 238 241 217 230 199 197 185 175 186 192 177 173 164 169 170 161 152 158 163
157 160 163 162 161 162 164 165 171 169 173 169 171 187 184 193 203 205 221 226 234 227 228 233 267 235 222 207 192 189 187 189 189 182 174 168 166 166 174 167 162 165 169
156 159 159 158 161 167 167 165 163 168 165 184 180 187 191 194 215 217 224 222 221 228 225 249 253 208 188 192 188 187 201 200 191 177 175 170 170 176 175 170 168 167 159
157 153 158 161 165 164 168 171 164 171 176 170 183 177 192 211 230 239 230 223 217 239 243 254 196 184 186 188 175 171 179 193 228 196 180 178 172 178 176 176 172 172 171
154 159 161 160 166 175 172 168 171 175 180 177 171 180 199 226 224 203 199 206 223 235 208 192 182 186 182 172 169 167 168 171 177 184 188 180 181 175 180 175 178 174 173
162 163 165 169 177 175 170 173 177 184 179 176 169 180 214 204 170 170 173 188 186 190 190 195 193 195 175 158 163 165 160 150 154 169 173 181 176 176 182 180 178 178 170
163 166 174 170 171 169 177 176 186 185 171 169 166 193 199 163 157 159 155 171 176 188 181 176 172 180 170 167 172 169 158 156 164 160 155 164 168 172 186 191 180 184 180
163 164 153 154 166 174 178 188 181 167 163 161 178 162 147 157 162 168 167 159 186 215 183 162 143 157 165 166 172 179 178 161 159 153 153 162 165 175 184 188 192 193 186
164 142 147 150 150 174 184 176 165 169 166 169 177 147 170 163 156 158 167 172 183 180 187 169 157 152 167 172 187 175 172 166 161 162 162 166 176 177 184 187 193 194 197
150 145 150 153 169 173 174 166 175 177 173 174 169 155 150 159 157 155 151 148 176 186 168 167 166 153 163 164 159 172 172 173 171 168 166 168 172 183 181 184 181 185 187
157 146 148 158 160 161 172 187 178 184 182 169 172 175 163 156 169 161 162 160 168 173 162 158 164 156 151 153 150 158 170 177 179 177 166 158 166 175 177 171 155 162 178
159 149 158 158 162 165 170 161 191 193 189 180 172 186 195 169 171 161 169 174 167 152 156 159 163 159 155 151 162 165 171 176 168 171 168 166 171 174 174 166 157 161 172
151 150 155 164 163 167 173 164 164 187 192 186 176 179 171 192 183 180 176 157 163 158 161 165 165 170 164 157 162 167 171 170 169 173 170 175 178 177 178 181 183 185 183
156 162 166 167 180 168 164 166 177 158 161 169 179 178 189 189 188 173 162 159 151 141 156 165 170 172 172 170 173 170 166 170 176 179 181 181 181 181 182 190 202 208 211
170 162 176 172 184 163 147 151 137 155 169 171 166 179 182 178 170 157 158 156 143 140 148 160 172 181 180 182 183 184 177 179 181 186 189 184 189 189 181 191 198 209 224
169 169 181 182 166 164 158 146 150 156 162 178 178 179 172 160 145 148 157 157 150 142 150 139 158 171 179 182 187 191 186 191 185 181 192 186 183 187 194 199 210 217 223
171 182 188 154 151 154 165 150 162 160 159 155 170 175 165 162 155 150 156 159 158 151 150 168 144 150 175 176 178 181 189 181 185 184 193 194 198 200 207 211 209 220 231
177 178 173 153 157 175 168 168 159 156 159 151 171 176 169 158 147 136 136 163 164 175 166 149 167 155 153 153 171 182 186 181 179 182 187 200 203 206 217 209 208 222 239
170 177 175 180 161 166 172 160 154 157 151 148 155 138 143 126 121 131 134 137 136 125 166 174 168 158 153 178 164 172 177 181 189 196 203 210 215 218 219 232 241 249 245
160 178 197 195 171 159 157 171 156 149 159 156 145 140 139 147 174 130 128 123 120 139 143 126 141 177 180 176 190 189 200 211 216 217 219 211 222 232 234 230 227 244 258
167 178 188 176 148 152 158 161 173 160 159 136 133 134 136 146 162 174 154 143 147 184 203 205 193 182 192 198 199 204 211 220 225 232 238 241 246 260 259 254 252 257 260
157 176 178 179 168 152 161 157 143 160 146 135 135 123 124 142 133 135 174 175 170 165 162 168 143 146 198 199 201 212 223 218 230 236 235 238 246 258 261 263 268 267 270
146 140 136 152 153 136 147 136 128 137 143 144 148 145 139 139 139 138 138 143 146 149 156 168 174 183 196 216 223 226 222 228 228 230 237 244 245 247 251 260 266 277 290